Temperature
14 14 15 15 15 15 15 15 15 15 15 15 15 15 15 15 15 15 15 15 15 15 15 15 15 15 15 15 15 15 15 15 15 15 15 14 14 14 14 14 14 14 14
14 14 14 14 14 15 15 15 15 15 15 15 15 15 15 15 15 15 15 15 15 15 15 15 15 15 15 15 15 14 14 14 14 14 14 14 14 14 14 14 14 13 13
13 13 14 14 14 14 14 15 15 15 15 14 15 14 14 14 15 15 15 15 15 14 14 14 14 14 14 14 14 14 14 14 14 14 14 13 13 13 13 13 13 13 13
13 13 13 13 14 14 14 14 14 14 14 14 14 14 14 14 14 14 14 14 14 14 14 14 14 14 14 14 14 14 14 14 14 14 13 13 13 13 13 13 13 13 13
12 13 13 13 13 14 14 14 14 14 14 14 14 14 14 14 14 14 14 14 14 14 14 14 14 14 14 14 14 14 14 14 14 13 12 12 13 13 13 13 13 13 13
12 12 13 13 13 13 13 14 14 14 14 14 14 14 14 14 14 14 14 14 14 14 14 14 14 14 14 14 14 14 14 13 13 12 12 12 12 13 13 13 13 12 12
12 12 13 13 13 13 13 13 13 14 14 14 14 14 14 14 14 14 14 14 14 14 14 14 14 13 14 14 13 13 13 13 13 12 12 12 12 13 13 12 12 12 12
12 12 12 13 13 13 13 13 13 13 14 14 14 14 14 14 14 14 14 14 14 14 14 13 13 13 14 14 13 13 13 13 13 12 12 12 12 12 12 12 12 12 12
12 12 12 12 12 13 13 13 13 13 13 13 13 14 14 14 14 14 14 13 14 14 13 13 13 13 13 13 13 13 13 13 12 12 12 12 12 12 12 12 12 12 12
11 12 12 12 12 12 12 13 13 13 13 13 13 13 13 13 13 13 13 13 13 13 13 13 13 13 13 13 13 13 13 12 12 12 12 12 12 12 12 12 12 12 12
11 11 11 12 12 12 12 12 12 12 12 13 13 13 13 13 13 13 13 13 13 13 13 13 13 13 12 12 12 12 12 12 11 12 12 12 12 12 11 11 11 11 11
11 11 11 11 11 11 12 12 12 12 12 12 12 12 12 12 12 12 12 13 13 13 12 12 12 12 12 12 12 12 11 11 11 11 11 12 12 11 11 11 11 11 11
10 10 11 11 11 11 11 11 11 11 11 11 12 12 12 12 12 12 12 12 12 12 12 12 12 12 12 12 12 11 11 11 11 11 11 11 11 11 11 11 10 10 10
10 10 10 10 10 11 11 11 11 11 11 11 11 11 11 11 11 11 11 11 11 12 12 12 11 11 11 11 11 11 11 11 11 11 11 11 11 11 10 10 10 10 10
9 9 10 10 10 10 10 10 10 10 10 11 11 11 11 11 11 11 11 11 11 11 11 11 11 11 11 11 11 11 10 10 10 10 10 11 10 10 10 10 10 10 9
9 9 9 9 9 9 10 10 10 10 10 10 10 10 10 10 10 10 10 10 11 11 11 11 11 11 10 10 10 10 10 10 10 10 10 10 10 10 10 9 9 9 9
9 9 9 9 9 9 9 9 9 9 9 10 10 10 10 10 10 10 10 10 10 10 10 10 10 10 10 10 10 10 10 10 10 10 10 10 9 9 9 9 9 9 9
8 8 8 8 8 9 9 9 9 9 9 9 9 9 9 9 9 9 10 10 10 10 10 10 9 9 9 9 9 9 9 9 9 9 9 9 9 9 9 9 9 8 8
7 8 8 8 8 8 8 8 8 8 8 8 9 9 9 9 9 9 9 9 9 9 9 9 9 9 9 9 9 9 9 9 9 9 8 8 8 8 8 8 8 8 8
7 7 7 7 7 7 7 8 8 8 8 8 8 8 8 8 9 9 9 9 9 9 9 9 9 8 8 8 8 8 8 8 8 8 8 8 8 8 7 7 7 7 7
7 7 7 7 7 7 7 7 7 7 7 8 8 8 8 8 8 8 8 8 8 8 8 8 8 8 8 8 7 7 7 8 7 8 7 7 7 7 7 7 7 7 7
6 6 7 7 7 7 7 7 7 7 7 7 7 7 7 7 8 8 8 8 8 7 7 7 7 7 7 7 7 6 6 7 7 7 7 7 7 7 7 7 6 6 6
6 6 6 6 6 6 6 6 6 7 7 7 7 7 7 7 7 7 7 7 7 7 7 7 7 7 7 6 6 6 6 6 6 6 6 7 6 6 6 6 6 6 6
5 6 6 6 6 6 6 6 6 6 6 6 6 6 6 6 7 7 7 7 7 7 6 6 6 6 6 6 6 6 6 6 5 5 6 6 6 6 6 6 5 6 6
5 5 5 5 5 5 5 5 5 5 5 5 6 6 6 6 6 6 6 6 6 6 6 6 6 6 5 5 5 5 5 5 5 5 5 5 5 5 5 5 5 5 5
5 5 5 5 4 4 4 5 5 5 5 5 5 5 5 5 5 6 6 5 5 5 5 5 5 5 5 5 5 5 5 5 5 5 4 4 4 5 5 5 5 5 5
Wind_Speed
1 1 2 2 3 4 5 5 6 7 7 6 6 7 7 7 6 7 7 7 7 7 7 8 8 8 8 8 8 8 8 8 8 8 8 8 9 8 8 7 6 8 9
1 1 3 3 4 4 4 5 6 6 6 6 6 6 6 6 6 6 7 7 7 7 7 7 7 8 8 8 8 8 8 8 8 8 7 8 8 8 7 6 6 7 8
2 2 4 4 4 4 4 5 6 6 6 6 5 5 5 6 6 6 6 6 6 6 6 7 7 7 8 8 8 8 8 7 7 6 4 6 7 7 7 6 7 7 7
3 3 4 5 5 5 5 5 5 6 5 5 5 5 5 5 5 6 6 6 6 6 6 6 6 7 7 7 7 7 7 7 6 3 3 4 5 6 6 6 6 6 6
3 3 5 5 5 5 5 5 5 5 5 5 5 5 5 4 4 5 5 5 5 5 5 6 6 6 6 6 6 6 6 5 4 2 3 3 3 5 4 4 4 4 5
3 3 4 5 4 5 5 5 5 5 4 4 4 4 4 4 4 4 5 5 5 5 5 5 6 6 6 5 5 5 5 4 3 3 2 2 2 4 3 3 3 3 3
3 3 4 4 4 5 5 5 5 4 4 4 3 4 3 3 3 4 4 4 4 4 4 5 5 5 5 5 5 4 4 1 1 2 2 2 3 3 3 3 2 2 2
3 3 3 4 4 4 4 4 4 4 3 3 3 3 3 2 2 3 4 4 4 4 4 4 4 4 5 4 4 4 3 1 1 1 1 1 2 2 2 2 2 2 1
3 3 3 3 4 4 4 4 4 4 3 3 3 3 3 3 2 3 3 3 3 3 4 4 4 4 4 4 4 3 2 1 2 1 2 1 1 2 2 2 2 2 2
3 3 3 4 3 3 2 3 4 4 4 3 3 3 2 3 3 3 3 3 3 3 3 3 3 4 4 4 3 3 2 3 2 2 2 1 1 3 3 3 3 3 3
3 3 3 3 3 2 2 2 2 3 3 2 2 2 2 1 2 2 2 2 2 3 3 3 3 4 4 4 3 2 3 3 3 2 2 0 3 4 4 4 4 4 4
1 3 2 2 2 2 2 1 0 1 2 1 1 0 1 1 1 1 2 2 2 2 3 4 4 5 4 3 3 4 3 3 3 3 2 2 4 5 5 5 5 5 5
1 1 3 2 1 1 1 1 0 1 1 2 1 1 1 1 1 1 1 2 2 3 2 3 4 4 3 2 3 4 4 3 3 3 3 3 5 6 6 6 6 6 6
1 1 2 3 2 1 1 0 0 0 1 1 1 1 1 1 1 1 1 1 1 2 2 2 3 3 4 4 4 4 4 4 4 4 3 4 6 7 6 7 7 7 7
3 2 2 2 2 1 1 1 1 1 1 1 1 2 2 2 2 2 1 2 2 1 2 2 3 3 4 4 4 4 5 5 5 5 4 5 7 7 7 8 7 7 8
3 3 2 2 2 2 1 1 1 1 1 1 1 2 2 2 2 2 2 2 2 2 2 3 4 4 4 4 4 5 5 5 6 6 5 5 6 7 8 8 7 7 8
4 3 3 3 2 2 2 2 1 2 2 1 2 3 3 3 3 3 2 2 2 3 3 4 4 4 4 4 5 5 5 5 6 6 6 5 6 6 7 7 7 7 8
4 3 3 2 3 2 2 2 2 2 2 2 2 2 3 4 4 3 3 3 3 3 3 3 4 4 4 4 4 4 4 4 6 6 6 6 6 5 6 6 6 6 7
4 4 3 3 3 3 3 3 2 2 2 3 2 3 3 4 4 4 3 3 3 3 3 3 3 4 4 4 4 4 4 5 6 6 6 6 6 5 5 5 6 6 7
3 3 3 3 3 3 2 2 2 3 3 3 3 3 4 4 5 4 4 3 3 3 3 3 4 4 4 3 3 3 4 5 5 5 5 5 5 6 6 6 6 6 7
3 3 3 3 3 2 2 3 3 3 3 3 3 3 4 4 4 5 4 4 3 4 4 4 3 3 3 2 2 3 3 4 5 4 5 5 5 5 6 6 6 6 6
4 4 4 4 4 4 3 3 3 4 4 4 3 4 5 4 4 5 5 4 4 4 5 4 3 3 2 2 2 2 2 3 3 4 4 5 5 4 5 6 6 6 6
4 4 4 4 4 4 4 3 3 3 3 3 4 4 4 5 5 4 5 5 5 5 5 5 5 5 4 3 3 2 2 4 3 4 5 5 5 5 5 6 7 8 8
4 4 4 4 4 4 4 4 4 4 4 5 4 4 5 5 5 5 5 5 5 5 5 5 5 5 5 4 4 4 4 3 3 3 4 5 6 7 7 6 7 8 8
4 3 4 4 4 4 4 5 5 5 5 4 5 5 5 4 5 5 5 5 5 5 6 6 6 6 5 5 4 4 4 4 5 4 5 6 6 6 6 7 7 7 7
3 3 4 4 4 4 5 5 5 6 6 6 6 5 5 4 4 5 5 5 5 5 6 7 7 7 7 7 6 5 4 4 4 4 5 6 7 6 6 6 6 6 6
Wind_Direction
108 76 92 84 86 93 104 115 120 124 120 116 116 117 120 116 112 109 108 101 102 106 110 111 113 109 105 105 104 102 100 97 93 90 89 89 90 92 92 91 95 91 88
85 119 106 96 89 93 104 119 119 123 124 125 121 121 123 123 117 111 109 103 103 105 106 108 108 104 101 101 100 99 98 93 90 90 92 97 95 93 93 89 78 86 90
66 95 119 97 88 90 97 118 120 120 119 123 123 123 122 123 120 113 111 107 108 108 104 105 105 103 99 97 99 98 98 95 93 95 114 108 103 98 96 91 94 94 92
67 90 94 91 86 86 91 105 117 121 117 116 116 116 114 115 116 116 114 109 109 109 105 104 105 104 101 99 101 102 101 97 97 125 126 105 104 99 98 93 95 95 93
77 86 86 84 82 83 88 98 106 115 119 116 116 111 110 116 116 119 119 113 109 112 109 109 109 109 109 107 104 104 104 102 107 145 108 107 106 103 105 102 98 97 96
79 78 84 80 87 85 83 92 101 100 111 118 115 110 105 118 125 125 121 117 116 119 118 118 118 116 113 109 108 107 103 107 157 127 116 115 118 121 125 118 111 106 103
71 58 75 68 88 94 88 85 93 102 98 104 112 111 105 105 122 128 128 125 122 122 125 131 132 128 125 116 109 107 106 109 168 135 132 124 108 114 127 124 132 116 121
65 56 69 64 67 93 96 90 90 91 95 95 95 107 109 104 114 131 132 133 134 135 135 139 140 141 137 131 122 113 104 146 214 184 177 150 110 143 153 148 142 141 148
61 59 57 67 60 68 95 92 91 88 83 89 90 99 111 107 115 131 131 136 143 153 150 150 155 151 149 145 135 127 124 238 241 208 215 203 151 204 197 186 183 186 199
58 51 49 49 47 52 86 96 90 86 85 83 83 75 96 122 129 131 141 138 155 168 166 162 161 161 156 148 140 135 152 220 238 233 234 201 217 236 227 225 224 220 222
42 35 42 42 35 33 39 80 112 108 97 99 97 76 99 158 166 163 146 139 159 179 182 176 173 168 164 159 149 148 188 229 245 250 245 231 245 245 242 241 242 239 237
14 12 16 30 24 28 30 48 177 174 161 164 147 131 189 199 180 206 166 144 161 181 193 191 185 179 181 184 178 187 226 248 254 248 242 233 251 252 248 243 241 246 245
279 340 356 357 2 12 24 22 17 231 202 200 205 259 246 207 193 200 193 183 189 189 199 204 200 201 204 205 214 227 244 251 255 253 240 231 250 255 256 253 250 249 248
256 301 334 345 325 325 348 345 308 284 239 219 224 249 258 267 240 222 224 245 231 226 228 229 234 225 224 219 225 236 242 250 254 252 241 235 251 256 258 261 260 254 252
256 281 309 322 318 299 303 296 292 260 278 260 241 246 256 250 254 244 236 242 244 253 239 249 241 234 234 234 236 240 244 250 253 250 244 240 251 255 257 259 257 259 257
255 265 280 290 303 290 264 260 270 272 267 286 267 252 251 254 252 253 240 244 249 248 248 252 255 240 236 240 241 247 251 253 251 249 249 237 240 253 257 257 255 260 260
252 263 275 284 288 290 270 263 272 273 263 260 273 267 249 251 254 254 247 243 254 255 254 250 250 244 236 235 240 244 251 255 256 252 249 246 240 241 248 254 255 257 258
252 254 267 276 275 283 289 271 272 276 274 260 256 266 261 249 250 249 245 249 255 250 247 245 243 245 239 237 242 247 250 252 253 254 249 246 245 243 240 245 254 255 259
250 247 250 260 266 271 281 277 270 274 272 267 261 264 266 256 247 247 245 251 256 252 247 241 245 246 249 246 247 253 256 255 255 252 250 248 245 244 247 237 246 256 261
254 254 252 257 267 274 271 275 262 255 261 270 267 265 262 258 249 245 243 246 250 248 246 243 249 249 252 257 258 261 261 257 251 247 250 249 243 241 245 246 246 249 257
258 259 259 260 267 270 272 273 263 259 261 261 260 267 264 265 258 241 243 241 239 243 247 244 243 245 251 263 278 288 278 260 249 248 251 252 246 247 246 246 249 253 255
255 261 262 259 262 264 267 269 267 268 263 269 268 261 257 258 263 251 239 238 238 243 248 244 239 237 260 243 269 292 271 265 248 259 256 258 257 252 255 255 250 251 258
262 264 267 266 262 263 268 271 275 262 262 263 264 262 257 256 253 259 254 242 240 238 240 242 232 233 247 246 240 239 248 249 285 248 253 252 256 258 260 262 257 252 253
267 267 268 270 266 264 260 255 255 258 260 266 265 266 268 262 256 255 262 251 241 240 242 242 238 239 237 244 246 247 259 268 251 257 258 256 262 262 263 263 261 258 256
276 276 275 272 270 268 263 258 258 262 264 265 267 268 270 264 257 255 257 259 247 243 244 243 243 241 235 239 245 254 258 261 257 257 271 272 268 263 266 265 262 259 258
285 284 282 276 273 269 262 258 257 260 266 265 265 266 267 270 266 258 255 257 257 247 245 245 241 242 241 241 242 242 250 249 249 255 268 278 277 274 271 268 263 261 259
Height
1515 1516 1516 1517 1517 1518 1519 1520 1520 1520 1521 1521 1521 1521 1521 1522 1522 1522 1522 1522 1522 1522 1523 1522 1522 1522 1522 1522 1522 1522 1522 1522 1522 1522 1522 1522 1522 1523 1523 1523 1523 1524 1523
1515 1516 1516 1517 1517 1518 1519 1519 1520 1520 1521 1521 1521 1522 1522 1522 1522 1522 1522 1522 1522 1522 1523 1523 1522 1522 1522 1522 1522 1522 1522 1522 1522 1522 1523 1523 1523 1523 1523 1523 1524 1524 1523
1514 1515 1516 1516 1517 1518 1518 1519 1520 1520 1521 1521 1521 1521 1522 1522 1522 1522 1522 1522 1522 1522 1522 1522 1522 1522 1522 1522 1522 1522 1522 1522 1523 1523 1523 1524 1524 1523 1523 1524 1524 1524 1524
1514 1515 1516 1516 1517 1517 1518 1518 1519 1520 1520 1521 1521 1521 1521 1521 1522 1522 1522 1522 1522 1522 1522 1522 1522 1522 1522 1522 1522 1522 1522 1522 1522 1523 1524 1525 1524 1524 1524 1524 1524 1524 1524
1514 1515 1515 1516 1516 1517 1517 1518 1518 1519 1520 1520 1520 1521 1521 1521 1521 1521 1521 1521 1521 1521 1522 1522 1522 1522 1522 1522 1522 1522 1522 1522 1522 1523 1524 1524 1524 1523 1523 1524 1524 1524 1523
1514 1515 1515 1515 1516 1516 1516 1517 1517 1518 1519 1519 1520 1520 1520 1520 1520 1520 1521 1521 1521 1521 1521 1521 1521 1521 1521 1521 1521 1522 1522 1522 1522 1523 1523 1523 1524 1523 1523 1523 1523 1523 1523
1514 1515 1515 1515 1515 1516 1516 1516 1517 1517 1518 1518 1519 1519 1519 1519 1519 1519 1520 1520 1520 1520 1520 1520 1520 1520 1520 1521 1521 1521 1521 1521 1522 1522 1522 1523 1522 1522 1522 1522 1522 1522 1522
1513 1514 1514 1514 1515 1515 1515 1516 1516 1516 1516 1517 1517 1518 1518 1518 1518 1518 1519 1519 1519 1519 1519 1519 1520 1520 1520 1520 1520 1520 1520 1520 1521 1521 1522 1522 1521 1521 1521 1521 1521 1521 1521
1512 1513 1513 1514 1514 1514 1514 1514 1515 1515 1515 1516 1516 1516 1517 1517 1517 1517 1517 1517 1518 1518 1518 1518 1518 1519 1519 1519 1519 1519 1519 1519 1520 1520 1520 1520 1520 1520 1520 1520 1520 1520 1520
1512 1512 1512 1512 1512 1512 1513 1513 1513 1514 1514 1514 1515 1515 1515 1515 1516 1516 1516 1516 1516 1517 1517 1517 1517 1517 1517 1517 1517 1518 1518 1518 1518 1518 1518 1518 1518 1518 1518 1518 1519 1518 1518
1510 1510 1511 1510 1510 1511 1511 1511 1512 1512 1512 1513 1513 1513 1513 1514 1514 1514 1514 1514 1515 1515 1515 1515 1516 1516 1516 1516 1516 1516 1516 1516 1517 1516 1516 1516 1516 1516 1516 1516 1516 1516 1516
1508 1509 1509 1509 1509 1509 1509 1510 1510 1510 1510 1511 1511 1511 1511 1512 1512 1512 1512 1512 1513 1513 1513 1514 1514 1514 1514 1514 1514 1514 1514 1514 1514 1514 1514 1513 1514 1514 1514 1514 1514 1514 1514
1507 1507 1507 1507 1507 1507 1507 1508 1508 1508 1509 1509 1509 1509 1509 1510 1510 1510 1510 1510 1510 1511 1511 1511 1512 1512 1512 1512 1512 1512 1512 1512 1512 1512 1511 1511 1511 1511 1511 1511 1511 1511 1511
1505 1505 1505 1505 1505 1505 1505 1505 1506 1506 1506 1506 1506 1507 1507 1507 1507 1507 1507 1507 1508 1508 1508 1509 1509 1509 1510 1510 1510 1510 1510 1510 1509 1509 1508 1508 1508 1509 1509 1509 1508 1508 1508
1503 1503 1503 1503 1503 1503 1503 1503 1503 1504 1504 1504 1504 1504 1505 1505 1505 1505 1505 1505 1505 1506 1506 1506 1507 1507 1507 1507 1507 1507 1507 1507 1507 1506 1506 1505 1506 1506 1506 1506 1505 1505 1505
1501 1501 1501 1501 1501 1501 1501 1501 1501 1501 1501 1501 1501 1502 1502 1502 1502 1502 1502 1502 1503 1503 1503 1504 1503 1504 1504 1504 1504 1504 1504 1504 1504 1503 1503 1502 1502 1502 1502 1502 1502 1502 1502
1499 1499 1499 1498 1498 1498 1498 1499 1498 1498 1498 1498 1498 1499 1499 1499 1499 1499 1499 1499 1500 1500 1500 1501 1500 1500 1500 1500 1501 1501 1501 1501 1500 1500 1500 1499 1499 1499 1498 1499 1498 1498 1498
1496 1496 1496 1496 1496 1496 1496 1496 1496 1495 1496 1496 1495 1496 1496 1496 1496 1496 1496 1496 1497 1497 1497 1497 1497 1497 1497 1497 1497 1497 1497 1497 1497 1497 1497 1496 1496 1495 1495 1495 1495 1494 1494
1493 1493 1493 1493 1493 1493 1493 1493 1493 1492 1493 1493 1493 1493 1493 1493 1493 1493 1493 1494 1494 1494 1494 1494 1494 1494 1493 1493 1493 1493 1493 1493 1493 1493 1493 1493 1492 1491 1491 1491 1491 1490 1490
1490 1490 1490 1490 1490 1490 1490 1489 1489 1489 1489 1489 1489 1489 1489 1489 1489 1489 1490 1490 1490 1490 1490 1490 1490 1490 1490 1490 1489 1489 1489 1489 1489 1489 1489 1489 1488 1488 1488 1487 1487 1486 1486
1487 1487 1487 1486 1486 1486 1486 1486 1486 1486 1486 1486 1486 1486 1486 1486 1486 1486 1486 1486 1486 1486 1486 1486 1486 1486 1486 1486 1486 1485 1485 1486 1485 1485 1485 1485 1485 1484 1484 1483 1483 1482 1481
1483 1483 1483 1483 1483 1483 1483 1482 1482 1482 1482 1482 1482 1482 1482 1482 1482 1482 1482 1482 1482 1482 1482 1482 1482 1482 1483 1483 1484 1483 1482 1483 1481 1481 1481 1481 1480 1480 1479 1479 1478 1478 1477
1479 1479 1479 1479 1479 1479 1479 1479 1478 1478 1478 1478 1478 1478 1478 1478 1478 1478 1478 1478 1478 1478 1478 1478 1479 1479 1479 1480 1480 1481 1480 1478 1477 1476 1476 1476 1476 1475 1475 1474 1474 1473 1472
1476 1476 1476 1476 1476 1476 1475 1475 1475 1474 1473 1473 1473 1473 1473 1473 1473 1473 1473 1473 1473 1473 1474 1474 1474 1475 1475 1475 1475 1476 1476 1475 1474 1471 1471 1471 1471 1470 1470 1469 1469 1468 1467
1473 1473 1473 1472 1472 1472 1472 1471 1471 1470 1470 1470 1469 1469 1469 1469 1469 1469 1469 1468 1468 1469 1469 1470 1470 1470 1470 1470 1470 1470 1471 1470 1470 1468 1466 1465 1465 1465 1465 1464 1463 1463 1462
1470 1470 1469 1469 1468 1468 1468 1468 1467 1467 1466 1465 1465 1464 1464 1464 1464 1464 1464 1464 1464 1464 1464 1465 1465 1465 1465 1465 1465 1465 1465 1465 1464 1464 1462 1461 1460 1459 1459 1458 1458 1457 1456